Weather Service Report


750 
ASUS41 KALY 200710
RWRALY

NEW YORK STATE HOURLY WEATHER ROUNDUP
NATIONAL WEATHER SERVICE ALBANY NY
300 AM EDT WED AUG 20 2014

NOTE: "FAIR" INDICATES FEW OR NO CLOUDS BELOW 12,000 FEET WITH NO
SIGNIFICANT WEATHER AND/OR NO OBSTRUCTIONS TO VISIBILITY.

NYZ032-033-038>043-046>054-057>066-NYZ062>081-200800-
EAST

  
CITY           SKY/WX    TMP DP  RH WIND       PRES   REMARKS
ALBANY         MOCLDY    59  56  89 CALM      29.95S                  
GLENS FALLS    PTCLDY    53  51  93 CALM      29.95F                  
POUGHKEEPSIE   CLOUDY    63  60  90 CALM      29.94R                  
NEWBURGH       PTCLDY    64  63  94 CALM      29.96R                  
MONTGOMERY     CLOUDY    59  57  93 CALM      29.95S                  
WHITE PLAINS   CLEAR     63  61  93 CALM      29.95R                  
ISLIP          CLEAR     64  61  90 N3        29.93S                  
NEW YORK CITY  PTCLDY    71  65  81 SW5       29.94R                  
CENTRAL PARK   PTCLDY    70  63  78 CALM      29.98R                  
$$

NYZ005>009-017-018-044>046-055-056-200800-
CENTRAL

  
CITY           SKY/WX    TMP DP  RH WIND       PRES   REMARKS
FULTON         PTCLDY    64  58  80 VRB5      29.87S                  
SYRACUSE       PTCLDY    63  60  90 E3        29.88S                  
ROME           CLEAR     61  55  81 SE7       29.92S                  
ELMIRA         FOG       59  59 100 CALM      29.91S VSB 1/4          
BINGHAMTON     CLEAR     64  61  90 S5        29.95S                  
MONTICELLO     PTCLDY    63  55  77 CALM      29.98S                  
$$

NYZ026>034-041>043-200800-
NORTH

  
CITY           SKY/WX    TMP DP  RH WIND       PRES   REMARKS
WATERTOWN      CLEAR     57  52  83 CALM      29.87S                  
FORT DRUM      NOT AVBL                                               
MASSENA        CLEAR     55  52  89 NE5       29.92S                  
SARANAC LAKE   CLEAR     42  41  96 CALM      29.96S                  
PLATTSBURGH    CLEAR     50  50 100 CALM      29.94S                  
$$

NYZ001>004-010>016-019>021-200800-
WEST

  
CITY           SKY/WX    TMP DP  RH WIND       PRES   REMARKS
NIAGARA FALLS  CLOUDY    70  62  76 SW10      29.82F                  
BUFFALO        MOCLDY    69  58  67 S7        29.84S                  
DUNKIRK        CLOUDY    70  61  73 S16G24    29.82F                  
JAMESTOWN      CLOUDY    64  61  88 S9        29.91F                  
WELLSVILLE     PTCLDY    66  63  90 SW8       29.95S                  
ROCHESTER      MOCLDY    62  59  90 CALM      29.85F                  
PENN YAN       PTCLDY    67  64  90 SW8       29.89F                  
$$

             KEY
       WCI = WIND CHILL INDEX
       VSB = VISIBILITY
       HX  = HEAT INDEX
$$

Return to Home page


Western Regional Climate Center, wrcc@dri.edu